Location: Ffald-y-Brenin
(52.0833°N, 4.0000°W)
Time: 17:07:44
(UTC+00:00)

ADEOS Rocket - Pass Details

Date: 18 February 2020
Orbit: 859 x 1306 km, 98.7° (Epoch: 27 March)

Event Time Altitude Azimuth Distance (km) Brightness Sun altitude
Rises 05:33:06 0° 151° (SSE) 3,676 6.4 -18.0°
Reaches altitude 10° 05:35:27 10° 148° (SSE) 2,786 5.7 -17.7°
Maximum altitude 05:41:42 67° 68° (ENE) 1,183 3.6 -16.7°
Drops below altitude 10° 05:48:43 10° 348° (NNW) 3,115 5.5 -15.6°
Sets 05:51:29 0° 346° (NNW) 4,139 6.1 -15.2°
